Weather History for Gwinner, ND

Change the Weather History Date:

Friday, January 31, 2014

  Actual Average (KP67) Record (KP67)
Temperature  
Mean Temperature 4 °F -  
Max Temperature 17 °F 17 °F 39 °F (1997)
Min Temperature -9 °F 3 °F 19 °F (1998)
Degree Days  
Heating Degree Days 61    
Moisture  
Dew Point -3 °F    
Average Humidity 70    
Maximum Humidity 79    
Minimum Humidity 62    
Precipitation  
Precipitation 0.00 in - - ()
Sea Level Pressure  
Sea Level Pressure 29.93 in    
Wind  
Wind Speed 10 mph (SW)    
Max Wind Speed 16 mph    
Max Gust Speed -    
Visibility 10 miles    
Events      
Averages and records for this station are not official NWS values.
T = Trace of Precipitation, MM = Missing Value Source: NWS Daily Summary

Daily Weather History Graph

Daily Weather History Graph

Search for Another Location

Airport:

Trip Planner

Search our weather history database for the weather conditions in past years. The results will help you decide how hot, cold, wet, or windy it might be!

Date:

Astronomy

Jan. 31, 2014 Rise Set
Actual Time 7:54 AM CST 5:34 PM CST
Civil Twilight 7:22 AM CST 6:06 PM CST
Nautical Twilight 6:46 AM CST 6:42 PM CST
Astronomical Twilight 6:11 AM CST 7:17 PM CST
Moon 7:59 AM CST (1/31) 7:07 PM CST (1/31)
Length of Visible Light 10h 43m
Length of Day
9h 39m
New Moon, 1% of the Moon is Illuminated
Jan 31
New Moon
Feb 6
First Quarter
Feb 14
Full
Feb 22
Last Quarter
Mar 1
New

Hourly Weather History & Observations

Time (CST) Temp. Windchill Dew Point Humidity Pressure Visibility Wind Dir Wind Speed Gust Speed Precip Events Conditions
12:15 AM -4.0 °F -19.0 °F -13.0 °F 65% 30.03 in 10.0 mi West 8.1 mph - 0.00 in   Clear
12:35 AM -4.0 °F -21.2 °F -13.0 °F 65% 30.03 in 10.0 mi WSW 10.4 mph - 0.00 in   Clear
12:55 AM -4.0 °F -20.2 °F -13.0 °F 65% 30.03 in 10.0 mi West 9.2 mph - 0.00 in   Clear
1:15 AM -4.0 °F -21.2 °F -13.0 °F 65% 30.03 in 10.0 mi West 10.4 mph - 0.00 in   Clear
1:35 AM -4.0 °F -20.2 °F -11.2 °F 71% 30.03 in 10.0 mi West 9.2 mph - 0.00 in   Clear
1:55 AM -4.0 °F -21.2 °F -11.2 °F 71% 30.02 in 10.0 mi West 10.4 mph - 0.00 in   Clear
2:15 AM -4.0 °F -21.2 °F -13.0 °F 65% 30.03 in 10.0 mi WSW 10.4 mph - 0.00 in   Clear
2:35 AM -4.0 °F -21.2 °F -13.0 °F 65% 30.03 in 10.0 mi West 10.4 mph - 0.00 in   Clear
2:55 AM -4.0 °F -21.2 °F -13.0 °F 65% 30.03 in 10.0 mi WSW 10.4 mph - 0.00 in   Clear
3:15 AM -4.0 °F -21.2 °F -13.0 °F 65% 30.03 in 10.0 mi WSW 10.4 mph - 0.00 in   Clear
3:35 AM -4.0 °F -23.0 °F -11.2 °F 71% 30.03 in 10.0 mi West 12.7 mph - 0.00 in   Clear
3:55 AM -2.2 °F -20.7 °F -11.2 °F 66% 30.03 in 10.0 mi WSW 12.7 mph - 0.00 in   Clear
4:15 AM -4.0 °F -19.0 °F -13.0 °F 65% 30.02 in 10.0 mi WSW 8.1 mph - 0.00 in   Clear
4:35 AM -4.0 °F -21.2 °F -13.0 °F 65% 30.02 in 10.0 mi West 10.4 mph - 0.00 in   Clear
4:55 AM -4.0 °F -21.2 °F -13.0 °F 65% 30.02 in 10.0 mi West 10.4 mph - 0.00 in   Clear
5:15 AM -4.0 °F -17.8 °F -13.0 °F 65% 30.01 in 10.0 mi West 6.9 mph - 0.00 in   Clear
5:35 AM -4.0 °F -19.0 °F -13.0 °F 65% 30.01 in 10.0 mi WSW 8.1 mph - 0.00 in   Clear
5:55 AM -5.8 °F -21.2 °F -14.8 °F 65% 30.01 in 10.0 mi WSW 8.1 mph - 0.00 in   Clear
6:15 AM -7.6 °F -22.1 °F -14.8 °F 71% 30.01 in 10.0 mi WSW 6.9 mph - 0.00 in   Clear
6:35 AM -9.4 °F -25.6 °F -14.8 °F 77% 30.01 in 10.0 mi WSW 8.1 mph - 0.00 in   Clear
6:55 AM -9.4 °F -26.8 °F -14.8 °F 77% 30.01 in 10.0 mi South 9.2 mph - 0.00 in   Clear
7:15 AM -9.4 °F -26.8 °F -14.8 °F 77% 30.00 in 10.0 mi SSW 9.2 mph - 0.00 in   Clear
7:35 AM -9.4 °F -24.3 °F -16.6 °F 71% 30.00 in 10.0 mi SW 6.9 mph - 0.00 in   Clear
7:55 AM -9.4 °F -25.6 °F -16.6 °F 71% 30.00 in 10.0 mi South 8.1 mph - 0.00 in   Clear
8:15 AM -9.4 °F -25.6 °F -16.6 °F 71% 29.99 in 10.0 mi SSW 8.1 mph - 0.00 in   Clear
8:35 AM -9.4 °F -24.3 °F -14.8 °F 77% 29.99 in 10.0 mi SW 6.9 mph - 0.00 in   Clear
8:55 AM -7.6 °F -18.8 °F -13.0 °F 77% 29.99 in 10.0 mi SW 4.6 mph - 0.00 in   Clear
9:15 AM -5.8 °F -22.4 °F -11.2 °F 77% 30.00 in 10.0 mi SW 9.2 mph - 0.00 in   Clear
9:35 AM -4.0 °F -21.2 °F -9.4 °F 78% 29.99 in 10.0 mi WSW 10.4 mph - 0.00 in   Clear
9:55 AM -2.2 °F -19.9 °F -7.6 °F 78% 29.99 in 10.0 mi SW 11.5 mph - 0.00 in   Clear
10:15 AM -0.4 °F -16.7 °F -7.6 °F 72% 29.99 in 10.0 mi SW 10.4 mph - 0.00 in   Clear
10:35 AM 1.4 °F -13.5 °F -5.8 °F 72% 29.99 in 10.0 mi SW 9.2 mph - 0.00 in   Clear
10:55 AM 3.2 °F -13.9 °F -5.8 °F 66% 29.99 in 10.0 mi SW 12.7 mph - 0.00 in   Clear
11:15 AM 3.2 °F -14.6 °F -4.0 °F 72% 29.99 in 10.0 mi SW 13.8 mph - 0.00 in   Clear
11:35 AM 5.0 °F -10.8 °F -4.0 °F 66% 29.99 in 10.0 mi WSW 11.5 mph - 0.00 in   Clear
11:55 AM 5.0 °F -10.8 °F -4.0 °F 66% 29.98 in 10.0 mi WSW 11.5 mph - 0.00 in   Clear
12:15 PM 8.6 °F -7.0 °F -0.4 °F 67% 29.97 in 10.0 mi SW 12.7 mph - 0.00 in   Clear
12:35 PM 8.6 °F -7.7 °F -0.4 °F 67% 29.95 in 10.0 mi SW 13.8 mph - 0.00 in   Clear
12:55 PM 8.6 °F -8.3 °F -0.4 °F 67% 29.95 in 10.0 mi SW 15.0 mph - 0.00 in   Clear
1:15 PM 10.4 °F -6.0 °F -0.4 °F 62% 29.94 in 10.0 mi SW 15.0 mph - 0.00 in   Clear
1:35 PM 10.4 °F -4.8 °F -0.4 °F 62% 29.93 in 10.0 mi SW 12.7 mph - 0.00 in   Clear
1:55 PM 12.2 °F -4.3 °F 1.4 °F 62% 29.92 in 10.0 mi SW 16.1 mph - 0.00 in   Clear
2:15 PM 12.2 °F -3.7 °F 1.4 °F 62% 29.91 in 10.0 mi SW 15.0 mph - 0.00 in   Clear
2:35 PM 12.2 °F -3.7 °F 3.2 °F 67% 29.90 in 10.0 mi WSW 15.0 mph - 0.00 in   Clear
2:55 PM 14.0 °F -0.8 °F 3.2 °F 62% 29.89 in 10.0 mi WSW 13.8 mph - 0.00 in   Clear
3:15 PM 14.0 °F -0.2 °F 3.2 °F 62% 29.89 in 10.0 mi SW 12.7 mph - 0.00 in   Clear
3:35 PM 14.0 °F -0.8 °F 3.2 °F 62% 29.88 in 10.0 mi SW 13.8 mph - 0.00 in   Clear
3:55 PM 14.0 °F 0.5 °F 5.0 °F 67% 29.88 in 10.0 mi SW 11.5 mph - 0.00 in   Clear
4:15 PM 14.0 °F 0.5 °F 5.0 °F 67% 29.87 in 10.0 mi SSW 11.5 mph - 0.00 in   Clear
4:35 PM 12.2 °F -1.8 °F 3.2 °F 67% 29.87 in 10.0 mi SSW 11.5 mph - 0.00 in   Clear
4:55 PM 12.2 °F -2.5 °F 3.2 °F 67% 29.86 in 10.0 mi SSW 12.7 mph - 0.00 in   Clear
5:15 PM 12.2 °F -0.2 °F 3.2 °F 67% 29.86 in 10.0 mi South 9.2 mph - 0.00 in   Clear
5:35 PM 10.4 °F -1.5 °F 3.2 °F 73% 29.86 in 10.0 mi SSW 8.1 mph - 0.00 in   Clear
5:55 PM 10.4 °F -3.3 °F 3.2 °F 73% 29.85 in 10.0 mi SSW 10.4 mph - 0.00 in   Clear
6:15 PM 10.4 °F -3.3 °F 3.2 °F 73% 29.85 in 10.0 mi SSW 10.4 mph - 0.00 in   Scattered Clouds
6:35 PM 12.2 °F -3.1 °F 5.0 °F 73% 29.86 in 10.0 mi SSW 13.8 mph - 0.00 in   Overcast
6:55 PM 12.2 °F -2.5 °F 5.0 °F 73% 29.86 in 10.0 mi SSW 12.7 mph - 0.00 in   Overcast
7:15 PM 14.0 °F -0.8 °F 5.0 °F 67% 29.85 in 10.0 mi SSW 13.8 mph - 0.00 in   Overcast
7:35 PM 14.0 °F 0.5 °F 6.8 °F 73% 29.85 in 10.0 mi South 11.5 mph - 0.00 in   Overcast
7:55 PM 14.0 °F -0.8 °F 8.6 °F 79% 29.84 in 10.0 mi South 13.8 mph - 0.00 in   Overcast
8:15 PM 14.0 °F 0.5 °F 8.6 °F 79% 29.83 in 10.0 mi South 11.5 mph - 0.00 in   Overcast
8:35 PM 14.0 °F 2.0 °F 8.6 °F 79% 29.83 in 10.0 mi South 9.2 mph - 0.00 in   Overcast
8:55 PM 15.8 °F 5.1 °F 8.6 °F 73% 29.82 in 10.0 mi South 8.1 mph - 0.00 in   Overcast
9:15 PM 17.6 °F 5.7 °F 10.4 °F 73% 29.82 in 10.0 mi South 10.4 mph - 0.00 in   Overcast
9:35 PM 17.6 °F 4.3 °F 10.4 °F 73% 29.81 in 10.0 mi SSW 12.7 mph - 0.00 in   Overcast
9:55 PM 17.6 °F 5.0 °F 10.4 °F 73% 29.80 in 10.0 mi SSW 11.5 mph - 0.00 in   Overcast
10:15 PM 17.6 °F 8.2 °F 10.4 °F 73% 29.80 in 10.0 mi SSW 6.9 mph - 0.00 in   Overcast
10:35 PM 17.6 °F 7.3 °F 10.4 °F 73% 29.80 in 10.0 mi SSW 8.1 mph - 0.00 in   Overcast
10:55 PM 17.6 °F 8.2 °F 10.4 °F 73% 29.79 in 10.0 mi SW 6.9 mph - 0.00 in   Overcast
11:15 PM 17.6 °F 8.2 °F 10.4 °F 73% 29.79 in 10.0 mi SW 6.9 mph - 0.00 in   Overcast
11:35 PM 17.6 °F 8.2 °F 10.4 °F 73% 29.79 in 10.0 mi SW 6.9 mph - 0.00 in   Mostly Cloudy
11:55 PM 14.0 °F 2.9 °F 8.6 °F 79% 29.78 in 10.0 mi WSW 8.1 mph - 0.00 in   Clear